CZ-6A DEB

Satellite information

Favourite Embed

Satellite Type and Status

DEBRISIN ORBIT

Key statistics

Satellite CZ-6A DEB at a glance.

Uptime

1129

Days in orbit

Revolutions

≈ 14.5

Per day

Orbit

SSO

Sun Synchronous Orbit

Inclination

98.7

Latest

Satellite identification and parameters

Extended collection of information and parameters for CZ-6A DEB.

Object identification

Identified? True

Debris? True

Object name: CZ-6A DEB

International designator: 2022-151FU

Object number (NORAD): 54444

Object ID (CCSDS): 54444

Country: PEOPLES REPUBLIC OF CHINA (PRC)

Current information (Y/N): Y

RCS size: MEDIUM

Orbital parameters

Period: 99.378 minutes

Inclination: 98.7429 deg

SMA: 7106.997 km

Apoapsis: 811.114 km

Periapsis: 646.609 km

RAAN: 40.5351 deg

Eccentricy: 0.01157345

Argument of periapsis: 81.9796 deg

Mean anomaly: 279.451 deg

Mean motion: 14.4901728 rev/day

Mean motion (dot): 0.00007401 rev/day2

B* drag term: 0.001802382 1/REarth

Two-line elements (TLE)

Creation date: Dec. 14, 2025, 3:07 a.m.

Reference frame: TEME

Reference center: EARTH

Epoch: Dec. 13, 2025, 3:27 p.m. UTC

TLE line 0: 0 CZ-6A DEB

TLE line 1: 1 54444U 22151FU 25347.64407397 .00007401 00000-0 18024-2 0 9992

TLE line 2: 2 54444 98.7429 40.5351 0115735 81.9796 279.4510 14.49017280162106

Live tracking on map

Real-time ground track for satellite CZ-6A DEB.

In-orbit conjunctions

A list of the most updated potential collisions computed for object CZ-6A DEB.

Target Orbit TCA Probability of collision Miss distance Type
FENGYUN 1C DEB SSO 2025-11-27 12:58:31 0.0001962978 148.0 (m) DEBRIS
METEOR 2-6 DEB LEO 2025-06-25 11:50:56 0.0001140333 77.0 (m) DEBRIS
CZ-6A DEB LEO 2025-01-22 01:46:33 0.0002009115 527.0 (m) DEBRIS
CZ-6A DEB LEO 2024-10-02 10:31:31 0.0002356958 605.0 (m) DEBRIS

Associated space launch

Chinese satellite reported for atmospheric/ocean/environmental/spatial parameter research purposes, details TBD.

CZ-6A DEB was lifted into orbit during the mission ‘Long March 6A | Yunhai 3’, on board a Long March 6A space rocket.

The launch took place on Nov. 11, 2022, 10:52 p.m. from Launch Complex 9A.

For more information about the launch, click the button.

Launch to space Long March 6A | Yunhai 3
Long March 6A | Yunhai 3

Agency: N/A

Status: Launch Successful

Launch date: Nov. 11, 2022, 10:52 p.m. UTC

Rocket: Long March 6A

Launch pad: Launch Complex 9A

Location: Taiyuan Satellite Launch Center, People's Republic of China

...

Latest news about this satellite

There are no fresh news available about this satellite. Check back as we update our databases every day.


Newsletter sign-up

Weekly statistics, charts and insights to help you stay on top of the space industry.